JA0ZJX-13 Weather Reports


time (UTC)temp
C
wind
direction
speed
KPH
gust
KPH
rain 1hr
cm
rain 24hr
cm
rain mn
cm
humidity
%
barometer
mb
20260505124334 13 150 14.5 29.0 0.00 0.00 0.00 67 1022.3
20260505123329 13 155 14.5 29.0 0.00 0.00 0.00 67 1022.2
20260505122338 13 206 11.3 27.4 0.00 0.00 0.00 67 1022.2
20260505121327 13 207 17.7 29.0 0.00 0.00 0.00 67 1022.0
20260505120341 13 180 11.3 27.4 0.00 0.00 0.00 66 1021.9
20260505115329 14 138 12.9 30.6 0.00 0.00 0.00 66 1021.6
20260505114339 14 134 12.9 32.2 0.00 0.00 0.00 66 1021.4
20260505113329 15 150 14.5 25.7 0.00 0.00 0.00 65 1021.1
20260505112342 15 152 16.1 35.4 0.00 0.00 0.00 65 1021.0
20260505111332 15 150 14.5 29.0 0.00 0.00 0.00 65 1020.8
20260505110342 15 163 11.3 25.7 0.00 0.00 0.00 65 1020.7
20260505101332 17 161 12.9 30.6 0.00 0.00 0.00 60 1019.4
20260505100340 17 225 11.3 27.4 0.00 0.00 0.00 60 1019.4
20260505095329 17 177 9.7 24.1 0.00 0.00 0.00 59 1019.3
20260505094340 18 156 12.9 27.4 0.00 0.00 0.00 57 1019.1
20260505093334 18 159 14.5 25.7 0.00 0.00 0.00 56 1018.9
20260505092343 19 159 11.3 24.1 0.00 0.00 0.00 54 1018.8
20260505091331 20 173 8.0 16.1 0.00 0.00 0.00 52 1018.7
20260505090340 20 169 9.7 25.7 0.00 0.00 0.00 49 1018.7
20260505085332 20 202 11.3 24.1 0.00 0.00 0.00 47 1018.6
20260505084343 21 175 11.3 25.7 0.00 0.00 0.00 45 1018.5
20260505083332 21 205 9.7 30.6 0.00 0.00 0.00 43 1018.4
20260505082325 21 166 11.3 30.6 0.00 0.00 0.00 39 1018.3
20260505081333 21 145 20.9 33.8 0.00 0.00 0.00 36 1018.2
20260505080342 21 187 11.3 30.6 0.00 0.00 0.00 35 1018.2
20260505075331 21 144 12.9 29.0 0.00 0.00 0.00 34 1017.2
20260505074323 21 190 12.9 29.0 0.00 0.00 0.00 34 1017.1
20260505073332 21 171 12.9 29.0 0.00 0.00 0.00 33 1017.0
20260505072341 22 186 16.1 30.6 0.00 0.00 0.00 32 1017.0
20260505071330 22 157 8.0 24.1 0.00 0.00 0.00 32 1016.9
20260505070343 22 157 8.0 24.1 0.00 0.00 0.00 30 1016.9
20260505065330 22 149 6.4 27.4 0.00 0.00 0.00 29 1016.8
20260505064339 22 206 6.4 27.4 0.00 0.00 0.00 30 1016.7
20260505063328 22 180 3.2 29.0 0.00 0.00 0.00 29 1016.7
20260505062340 22 139 12.9 17.7 0.00 0.00 0.00 29 1016.8
20260505061327 22 148 12.9 24.1 0.00 0.00 0.00 29 1016.9
20260505060336 22 182 14.5 20.9 0.00 0.00 0.00 27 1016.9
20260505055328 22 203 8.0 24.1 0.00 0.00 0.00 27 1017.0
20260505054337 22 161 3.2 20.9 0.00 0.00 0.00 27 1017.0
20260505053326 22 204 3.2 16.1 0.00 0.00 0.00 25 1017.1
20260505052335 21 348 3.2 8.0 0.00 0.00 0.00 28 1017.1
20260505051325 21 296 1.6 9.7 0.00 0.00 0.00 29 1017.4
20260505050335 21 26 3.2 9.7 0.00 0.00 0.00 29 1017.4
20260505041327 19 19 4.8 11.3 0.00 0.00 0.00 31 1018.3
20260505040336 19 293 6.4 11.3 0.00 0.00 0.00 31 1018.3
20260505035327 18 57 3.2 6.4 0.00 0.00 0.00 30 1018.5
20260505034337 18 312 3.2 9.7 0.00 0.00 0.00 31 1018.7
20260505033325 18 317 6.4 11.3 0.00 0.00 0.00 32 1018.9
20260505032338 18 292 4.8 11.3 0.00 0.00 0.00 33 1019.0
20260505031328 17 281 1.6 9.7 0.00 0.00 0.00 34 1019.1
20260505030337 17 229 6.4 9.7 0.00 0.00 0.00 34 1019.1
20260505025326 16 325 3.2 14.5 0.00 0.00 0.00 32 1019.2
20260505024339 16 320 3.2 17.7 0.00 0.00 0.00 33 1019.4
20260505023327 16 51 4.8 14.5 0.00 0.00 0.00 37 1019.4
20260505022336 16 347 1.6 11.3 0.00 0.00 0.00 37 1019.6
20260505021326 16 283 4.8 6.4 0.00 0.00 0.00 40 1019.8
20260505020339 15 283 3.2 9.7 0.00 0.00 0.00 39 1019.8
20260505015327 15 26 6.4 11.3 0.00 0.00 0.00 40 1019.8
20260505014336 15 342 4.8 8.0 0.00 0.00 0.00 40 1019.9
20260505013329 15 304 3.2 8.0 0.00 0.00 0.00 40 1020.0
20260505012338 14 128 4.8 9.7 0.00 0.00 0.00 40 1020.3
20260505011327 14 66 4.8 8.0 0.00 0.00 0.00 43 1020.4
20260505010337 13 280 1.6 8.0 0.00 0.00 0.00 44 1020.5
20260505005331 13 202 4.8 8.0 0.00 0.00 0.00 45 1020.4
20260505004340 13 25 1.6 8.0 0.00 0.00 0.00 47 1021.5
20260505003331 12 230 3.2 8.0 0.00 0.00 0.00 47 1021.6
20260505002340 12 283 1.6 8.0 0.00 0.00 0.00 47 1021.5
20260505001334 12 132 4.8 8.0 0.00 0.00 0.00 49 1021.5
20260505000343 12 80 4.8 6.4 0.00 0.00 0.00 50 1021.5
20260504235333 11 338 3.2 8.0 0.00 0.00 0.00 52 1021.4
20260504234327 11 195 1.6 4.8 0.00 0.00 0.00 55 1021.2
20260504233336 11 194 3.2 6.4 0.00 0.00 0.00 56 1021.2
20260504232326 10 210 6.4 8.0 0.00 0.00 0.00 59 1021.3
20260504231335 10 194 1.6 6.4 0.00 0.00 0.00 61 1021.2
20260504230327 10 101 4.8 6.4 0.00 0.00 0.00 61 1021.1
20260504225334 10 130 1.6 4.8 0.00 0.00 0.00 64 1021.1
20260504224343 10 130 0.0 1.6 0.00 0.00 0.00 66 1021.0
20260504223330 9 131 0.0 3.2 0.00 0.00 0.00 69 1021.0
20260504222342 8 130 1.6 3.2 0.00 0.00 0.00 70 1020.8
20260504221331 8 130 1.6 4.8 0.00 0.00 0.00 71 1020.7
20260504220341 8 130 1.6 6.4 0.00 0.00 0.00 72 1020.8
20260504215330 7 130 0.0 0.0 0.00 0.00 0.00 74 1020.7
20260504214344 7 130 0.0 0.0 0.00 0.00 0.00 75 1020.6
20260504213332 7 131 0.0 0.0 0.00 0.00 0.00 78 1020.5
20260504212342 6 131 0.0 3.2 0.00 0.00 0.00 80 1020.3
20260504211334 5 131 0.0 1.6 0.00 0.05 0.00 80 1020.1
20260504210343 5 130 0.0 0.0 0.00 0.05 0.00 81 1019.9
20260504205331 5 130 0.0 0.0 0.00 0.05 0.00 82 1019.6
20260504204341 4 131 0.0 0.0 0.00 0.05 0.00 83 1019.5
20260504203334 4 131 0.0 0.0 0.00 0.05 0.00 83 1019.2
20260504202342 4 131 0.0 0.0 0.00 0.05 0.00 83 1019.1
20260504201330 4 131 0.0 4.8 0.00 0.28 0.00 83 1018.9
20260504200337 4 130 3.2 4.8 0.00 0.28 0.00 83 1018.8
20260504195330 4 129 1.6 3.2 0.00 0.28 0.00 83 1018.5
20260504194339 4 130 0.0 0.0 0.00 0.28 0.00 83 1018.4
20260504193330 5 131 0.0 0.0 0.00 0.28 0.00 83 1017.9
20260504192339 5 130 0.0 3.2 0.00 0.28 0.00 82 1017.7
20260504191333 5 131 0.0 3.2 0.00 0.51 0.00 82 1017.8
20260504190343 5 131 0.0 3.2 0.00 0.51 0.00 82 1017.6
20260504185333 5 130 1.6 6.4 0.00 0.51 0.00 82 1017.4
20260504184326 5 335 0.0 0.0 0.00 0.51 0.00 82 1017.2
20260504183336 5 360 0.0 3.2 0.00 0.51 0.00 81 1017.1
20260504182325 5 335 1.6 4.8 0.00 0.51 0.00 81 1016.9
20260504181335 5 360 1.6 4.8 0.00 0.79 0.00 80 1016.7
20260504180329 6 334 3.2 6.4 0.00 0.79 0.00 79 1016.5
20260504175338 6 336 3.2 6.4 0.00 0.79 0.00 78 1016.3
20260504174326 6 360 0.0 3.2 0.00 0.79 0.00 77 1016.2
20260504173335 6 335 1.6 4.8 0.00 0.79 0.00 76 1015.8
20260504172330 6 333 0.0 0.0 0.00 0.79 0.00 75 1015.6
20260504171339 6 360 0.0 3.2 0.00 1.24 0.00 74 1015.5
20260504170328 7 334 1.6 4.8 0.00 1.24 0.00 74 1015.4
20260504160329 7 325 14.5 24.1 0.00 1.45 0.00 73 1014.2
20260504150333 8 309 19.3 25.7 0.00 1.57 0.00 69 1013.0
20260504140330 10 30 6.4 20.9 0.00 1.70 1.47 65 1012.5
20260504130331 11 10 9.7 19.3 0.00 1.78 1.47 61 1011.6